Weather Roundup
Issued by NWS Springfield, MO

Home | Current Version | Previous Version | Text Only | Print | Product List | Glossary On
Versions: 1 2 3 4 5 6 7 8 9 10 11 12 13 14 15 16 17 18 19 20 21 22 23 24 25 26 27 28 29 30 31 32 33 34 35 36 37 38 39 40 41 42 43 44 45 46 47 48 49 50
000
NZUS99 KSGF 270307
HRRSGF

HOURLY WEATHER
NATIONAL WEATHER SERVICE SPRINGFIELD MO
900 PM CST WED NOV 26 2014

......SGF CWA......

CITY           SKY/WX    TMP DP  RH WIND       PRES   REMARKS
SPRINGFIELD    CLOUDY    36  26  67 NW18G31   30.24R WCI  26
JOPLIN         MOCLDY    35  24  64 NW16      30.32R WCI  25
WEST PLAINS    CLOUDY    40  27  59 NW20G29   30.14R WCI  30
ROLLA          FRZ RAIN  32  29  88 W15G31    30.13R WCI  22
OSAGE BEACH    CLOUDY    34  27  75 W8G20     30.20R WCI  27
BRANSON        CLEAR     36  27  69 NW12G21   30.23R WCI  27

......SURROUNDING SGF CWA......

CITY           SKY/WX    TMP DP  RH WIND       PRES   REMARKS
CHANUTE        CLEAR     31  23  72 NW13      30.36R WCI  21
PARSONS        CLEAR     34  24  67 NW13G23   30.37R WCI  25
COFFEYVILLE    CLEAR     36  24  62 NW18G28   30.37R WCI  26
EMPORIA        CLEAR     29  21  72 NW18G24   30.38R WCI  16
GROVE OK       CLEAR     37  28  70 NW13G18   30.35R WCI  29
ROGERS AR      MOCLDY    36  25  64 NW10      30.29R WCI  28
SILOAM SPRINGS CLEAR     36  21  55 NW18G26   30.31R WCI  25
HARRISON AR    CLEAR     37  26  64 NW12G26   30.21R WCI  29
NEAR YELLVILLE PTCLDY    41  25  52 NW16G25   30.21R

......KANSAS AND MISSOURI......

CITY           SKY/WX    TMP DP  RH WIND       PRES   REMARKS
KANSAS CTY INT CLOUDY    29  22  75 N15G28    30.32R WCI  18
DOWNTOWN KC    CLOUDY    32  23  69 NW12G21   30.33R WCI  23
COLUMBIA       CLOUDY    32  29  88 NW18G28   30.17R WCI  20
SEDALIA        CLOUDY    33  27  78 NW17G25   30.25R WCI  22
ST JOSEPH      CLOUDY    28  21  75 N20G35    30.36R WCI  15
ST LOUIS       CLOUDY    34  31  88 CALM      30.09R FOG
SPIRIT OF STL  CLOUDY    35  32  88 W8        30.09R FOG     WCI  29
KIRKSVILLE     CLOUDY    31  29  92 N16G22    30.22R FOG     WCI  20
WICHITA        PTCLDY    36  21  54 N15G22    30.39R WCI  27
TOPEKA         CLOUDY    30  21  69 NW15      30.39R WCI  19
OLATHE         CLOUDY    30  23  75 NW16G25   30.31R WCI  19

......TENNESSEE......

CITY           SKY/WX    TMP DP  RH WIND       PRES   REMARKS
MEMPHIS        MOCLDY    44  34  67 NW7       30.16R
NASHVILLE      CLOUDY    42  38  85 W12       30.03R

......ARKANSAS.......

CITY           SKY/WX    TMP DP  RH WIND       PRES   REMARKS
FAYETTEVILLE   CLEAR     36  26  67 NW16      30.29R WCI  26
FT SMITH       CLEAR     45  25  45 NW20G30   30.29R
LITTLE ROCK    CLEAR     50  27  40 W10       30.21R

......OKLAHOMA.......

CITY           SKY/WX    TMP DP  RH WIND       PRES   REMARKS
TULSA          PTCLDY    40  25  55 N20G28    30.36R WCI  30
PONCA CITY     PTCLDY    37  24  59 N12       30.38R WCI  29
MCALESTER      CLEAR     45  26  47 N10       30.34R
OKLAHOMA CITY  PTCLDY    43  22  43 N9        30.38R

......IOWA............

CITY           SKY/WX    TMP DP  RH WIND       PRES   REMARKS
DES MOINES     LGT SNOW  25  21  85 NW16      30.31R FOG     WCI  12
QUAD CITIES    CLOUDY    27  20  75 N5        30.22R WCI  22

......ILLINOIS........

CITY           SKY/WX    TMP DP  RH WIND       PRES   REMARKS
QUINCY         LGT SNOW  30  27  88 N14       30.17R FOG     WCI  19
CHICAGO        CLOUDY    29  23  78 NW9       30.15R WCI  20



USA.gov is the U.S. government's official web portal to all federal, state and local government web resources and services.